Location: Brunsen
(51.8651°N, 9.8610°E)
Time: 21:40:18
(UTC+00:00)

CZ-2C R/B - Pass Details

Date: 19 August 2024
Orbit: 782 x 869 km, 98.3° (Epoch: 07 September)

Event Time Altitude Azimuth Distance (km) Brightness Sun altitude
Exits shadow 03:01:16 10° 258° (WSW) 2,415 4.5 -10.4°
Maximum altitude 03:02:56 12° 277° (W) 2,312 4.6 -10.2°
Drops below altitude 10° 03:04:51 10° 298° (WNW) 2,433 4.8 -9.9°
Sets 03:09:00 0° 330° (NNW) 3,349 5.9 -9.4°
